This is the latest recevied weather packets stored in our database for station/object DC1NF-7. If no packets are shown the sender has not sent any weather packets the latest 10 day(s).
| Time | Temp. | Humidity | Pressure | Rain* | Wind** | Luminosity | Snow |
|---|---|---|---|---|---|---|---|
| 1777949155 | 15.56° C | 72% | 1010.1 hPa | 0 mm | - | 0 W/m² | - |
| 1777948548 | 15.56° C | 72% | 1010.3 hPa | 0 mm | - | 0 W/m² | - |
| 1777947947 | 16.11° C | 71% | 1010.3 hPa | 0 mm | - | 0 W/m² | - |
| 1777947345 | 16.11° C | 70% | 1010.3 hPa | 0 mm | - | 0 W/m² | - |
| 1777946735 | 16.11° C | 71% | 1010.5 hPa | 0 mm | - | 0 W/m² | - |
| 1777946132 | 16.11° C | 71% | 1010.6 hPa | 0 mm | - | 0 W/m² | - |
| 1777945530 | 16.11° C | 70% | 1010.5 hPa | 0 mm | - | 0 W/m² | - |
| 1777944927 | 16.11° C | 70% | 1010.4 hPa | 0 mm | - | 0 W/m² | - |
| 1777944323 | 15.56° C | 72% | 1010.6 hPa | 0 mm | - | 0 W/m² | - |
| 1777943717 | 15.56° C | 74% | 1011 hPa | 0 mm | - | 0 W/m² | - |
| 1777943174 | 15° C | 76% | 1011.1 hPa | 0 mm | - | 0 W/m² | - |
| 1777942572 | 15.56° C | 75% | 1011.3 hPa | 0 mm | - | 0 W/m² | - |
| 1777941965 | 15.56° C | 72% | 1011.3 hPa | 0 mm | - | 0 W/m² | - |
| 1777941362 | 15.56° C | 73% | 1011.5 hPa | 0 mm | - | 0 W/m² | - |
| 1777940758 | 15.56° C | 74% | 1011.5 hPa | 0 mm | - | 0 W/m² | - |
| 1777940158 | 16.11° C | 74% | 1011.5 hPa | 0 mm | - | 0 W/m² | - |
| 1777939555 | 15.56° C | 72% | 1011.5 hPa | 0 mm | - | 0 W/m² | - |
| 1777938949 | 16.11° C | 72% | 1011.7 hPa | 0 mm | - | 0 W/m² | - |
| 1777938346 | 16.11° C | 70% | 1011.6 hPa | 0 mm | - | 0 W/m² | - |
| 1777937742 | 16.67° C | 68% | 1011.9 hPa | 0 mm | - | 0 W/m² | - |
| 1777937141 | 16.67° C | 67% | 1011.9 hPa | 0 mm | - | 0 W/m² | - |
| 1777936533 | 16.67° C | 65% | 1011.7 hPa | 0 mm | - | 0 W/m² | - |
| 1777935930 | 17.22° C | 64% | 1011.8 hPa | 0 mm | - | 0 W/m² | - |
| 1777935330 | 17.22° C | 64% | 1011.8 hPa | 0 mm | - | 0 W/m² | - |
| 1777934724 | 17.22° C | 64% | 1011.9 hPa | 0 mm | - | 0 W/m² | - |
* Rain latest hour (hover to see other rain measurements)
** Current wind speed in m/s (hover to see current wind gust speed)